Location: Whispering Pines Observatory
(39.4020°N, 104.7430°W)
Time: 01:18:50
(UTC-06:00)

MOS 1 Rocket - Visible Passes

Search period start: 19 August 2017 00:00
Search period end: 29 August 2017 00:00
Orbit: 614 x 832 km, 97.5° (Epoch: 18 August)

Date Brightness Start Highest point End Pass type
(mag) Time Alt. Az. Time Alt. Az. Time Alt. Az.
19 Aug 3.4 03:42:56 10° N 03:46:38 59° NNW 03:46:38 59° NNW visible
20 Aug 4.9 02:54:10 10° NNE 02:56:57 28° ENE 02:56:57 28° ENE visible
20 Aug 4.6 04:32:58 10° NNW 04:36:13 21° WNW 04:36:16 21° WNW visible
21 Aug 3.5 03:43:01 10° N 03:46:36 55° NNW 03:46:36 55° NNW visible
22 Aug 4.9 02:54:14 10° NNE 02:56:56 28° ENE 02:56:56 28° ENE visible
22 Aug 4.7 04:33:05 10° NNW 04:36:14 21° WNW 04:36:14 21° WNW visible
23 Aug 3.7 03:43:06 10° N 03:46:34 52° NNW 03:46:34 52° NNW visible
24 Aug 5.0 02:54:18 10° NNE 02:56:54 28° ENE 02:56:54 28° ENE visible
24 Aug 4.7 04:33:10 10° NNW 04:36:13 20° WNW 04:36:13 20° WNW visible
25 Aug 3.8 03:43:11 10° N 03:46:33 48° NNW 03:46:33 48° NNW visible
26 Aug 5.1 02:54:20 10° NNE 02:56:53 28° NE 02:56:53 28° NE visible
26 Aug 4.8 04:33:16 10° NNW 04:36:11 20° WNW 04:36:11 20° WNW visible
27 Aug 4.0 03:43:16 10° N 03:46:31 45° NNW 03:46:31 45° NNW visible
28 Aug 5.1 02:54:24 10° NNE 02:56:51 27° NE 02:56:51 27° NE visible
28 Aug 4.8 04:33:22 10° NNW 04:36:10 20° WNW 04:36:10 20° WNW visible
